Tracking 29892 objects as of 21-Nov-2024
HD Live streaming from Space Station
objects crossing your sky now

STARLINK-30474

Track STARLINK-30474 now!
10-day predictions
STARLINK-30474 is classified as:


NORAD ID: 57897
Int'l Code: 2023-146G
Perigee: 565.2 km
Apogee: 567.3 km
Inclination: 43.0 °
Period: 95.8 minutes
Semi major axis: 6937 km
RCS: Unknown
Launch date: September 20, 2023
Source: United States (US)
Launch site: AIR FORCE EASTERN TEST RANGE (AFETR)
Your satellite tracking list
Your tracking list is empty




NASA's NSSDC Master Catalog

Two Line Element Set (TLE):
1 57897U 23146G   24325.55349682 -.00001583  00000-0 -10211-3 0  9997
2 57897  43.0037   9.6921 0001516 262.6549  97.4121 15.02538443 65740
Source of the keplerian elements: AFSPC